Location: Nitra
(0.0000°N, 18.0833°E)
Time: 09:19:16
(UTC+01:00)

PRC 14 - Pass Details

Date: 25 September 2022
Orbit: 481 x 6301 km, 36.1° (Epoch: 28 November)

Event Time Altitude Azimuth Distance (km) Brightness Sun altitude
Rises 19:39:29 0° 309° (NW) 2,680 9.2 -15.1°
Reaches altitude 10° 19:41:40 10° 309° (NW) 1,665 8.0 -15.6°
Maximum altitude 19:45:00 87° 40° (NE) 495 4.5 -16.4°
Enters shadow 19:46:49 28° 126° (SE) 1,019 5.7 -16.9°
